Home   Weather   New Zealand   Wellington   Past weeks
Flag for New Zealand

Past Weather in Wellington, New Zealand — Yesterday and Last 2 Weeks

Currently: 68 °F. Light rain. Low clouds. (Weather station: Wellington Airport, New Zealand). See more current weather

Past Weather in Wellington — Graph

°F

Wellington Temperature Yesterday

Maximum temperature yesterday: 70 °F (at 11:30 am)
Minimum temperature yesterday: 63 °F (at 12:00 am)
Average temperature yesterday: 66 °F

High & Low Weather Summary for the Past Weeks

 TemperatureHumidityPressure
High75 °F (Feb 16, 2:30 pm)100% (Feb 20, 7:00 am)30.36 "Hg (Feb 20, 7:00 am)
Low50 °F (Feb 21, 6:00 am)39% (Feb 22, 2:30 pm)29.68 "Hg (Feb 19, 8:30 pm)
Average64 °F71%30.10 "Hg
* Reported Feb 10 2:00 am — Feb 25 2:00 am, Wellington. Weather by CustomWeather, © 2024

Note: Actual official high and low records may vary slightly from our data, if they occured in-between our weather recording intervals... More about our weather records

Wellington Weather History for the Previous 24 Hours

Scroll right to see more
 ConditionsComfort  
Time TempWeatherWind HumidityBarometerVisibility
2:00 am
Sun, Feb 25
68 °FLight rain. Low clouds.26 mph94%29.68 "HgN/A
1:30 am68 °FLight rain. Overcast.23 mph94%29.71 "Hg6 mi
1:00 am68 °FLight rain. Overcast.28 mph94%29.71 "Hg2 mi
12:30 am68 °FLight rain. Overcast.29 mph94%29.71 "Hg2 mi
12:00 am68 °FLight rain. Mostly cloudy.30 mph94%29.71 "Hg3 mi
11:30 pm
Sat, Feb 24
68 °FLight rain. Passing clouds.26 mph88%29.71 "Hg4 mi
11:00 pm68 °FLight rain. Mostly cloudy.28 mph88%29.74 "HgN/A
10:30 pm68 °FPassing clouds.29 mph88%29.74 "HgN/A
10:00 pm68 °FPassing clouds.31 mph88%29.74 "HgN/A
9:30 pm68 °FPassing clouds.31 mph83%29.74 "HgN/A
9:00 pm70 °FPassing clouds.29 mph78%29.74 "HgN/A
8:30 pm68 °FPassing clouds.25 mph83%29.77 "HgN/A
8:00 pm68 °FOvercast.21 mph83%29.80 "HgN/A
7:30 pm68 °FPartly sunny.26 mph83%29.80 "HgN/A
7:00 pm68 °FLight rain. Partly sunny.25 mph83%29.80 "HgN/A
6:30 pm68 °FMostly cloudy.23 mph83%29.83 "HgN/A
6:00 pm68 °FOvercast.20 mph83%29.83 "HgN/A
5:30 pm68 °FPartly sunny.23 mph83%29.83 "HgN/A
5:00 pm68 °FOvercast.26 mph83%29.86 "HgN/A
4:30 pm70 °FPartly sunny.28 mph78%29.86 "HgN/A
4:00 pm70 °FPartly sunny.25 mph78%29.86 "HgN/A
3:30 pm68 °FLight rain. Partly sunny.29 mph88%29.86 "Hg2 mi
3:00 pm70 °FPartly sunny.25 mph78%29.89 "HgN/A
2:30 pm68 °FPartly sunny.28 mph83%29.92 "HgN/A
2:00 pm70 °FPartly sunny.25 mph78%29.92 "HgN/A
12:30 pm70 °FPartly sunny.33 mph73%29.92 "HgN/A
12:00 pm68 °FPartly sunny.30 mph73%29.95 "HgN/A
11:30 am70 °FPartly sunny.30 mph69%29.98 "HgN/A
11:00 am68 °FPartly sunny.30 mph73%29.98 "HgN/A
10:30 am68 °FPassing clouds.28 mph69%29.98 "HgN/A
10:00 am68 °FPassing clouds.31 mph64%29.98 "HgN/A
9:30 am66 °FPartly sunny.29 mph73%29.98 "HgN/A
9:00 am64 °FScattered clouds.24 mph73%29.98 "HgN/A
8:30 am64 °FPartly sunny.24 mph73%29.98 "HgN/A
8:00 am64 °FPartly sunny.25 mph78%29.98 "HgN/A
7:30 am63 °FPartly sunny.26 mph83%29.98 "HgN/A
7:00 am63 °FScattered clouds.25 mph77%29.98 "HgN/A
6:30 am63 °FPassing clouds.22 mph77%30.01 "HgN/A
6:00 am63 °FPassing clouds.24 mph77%30.01 "HgN/A
5:30 am63 °FPassing clouds.25 mph83%30.01 "HgN/A
5:00 am63 °FPassing clouds.25 mph83%30.01 "HgN/A
4:30 am63 °FPassing clouds.23 mph83%30.04 "HgN/A
4:00 am63 °FPassing clouds.23 mph83%30.04 "HgN/A
3:30 am64 °FPassing clouds.23 mph78%30.04 "HgN/A
3:00 am63 °FPassing clouds.23 mph83%30.07 "HgN/A
Weather by CustomWeather, © 2024

See weather overview